Location: Sofia
(42.6977°N, 23.3219°E)
Time: 11:43:17
(UTC+03:00)

NOAA 15 - Pass Details

Date: 24 February 2024
Orbit: 795 x 811 km, 98.6° (Epoch: 12 April)

Event Time Altitude Azimuth Distance (km) Brightness Sun altitude
Rises 20:06:35 0° 193° (SSW) 3,298 7.9 -22.3°
Reaches altitude 10° 20:09:11 10° 204° (SSW) 2,375 7.2 -22.7°
Maximum altitude 20:13:44 30° 265° (W) 1,427 6.5 -23.6°
Drops below altitude 10° 20:18:20 10° 325° (NW) 2,398 7.6 -24.4°
Sets 20:20:59 0° 336° (NNW) 3,337 8.3 -24.9°
